User: anonymous   Login
Location: Caltech
(34.1382°N, 118.1253°W)
Time: 14:09:16
(UTC-08:00)
Language:

SL-16 R/B - Orbit

View from above orbital plane
View from above orbital plane
View from above satellite
View from above satellite

Ground track
Ground track

The orbit data is extracted from the following two-line orbital elements,

1 31793U 07029B   17328.27168740 -.00000007 +00000-0 +21314-4 0  9990
2 31793 070.9780 052.9010 0002893 271.5549 147.8392 14.14395769537310
Epoch (UTC): 24 November 2017 06:31:13
Eccentricity: 0.0002893
inclination: 70.9780°
perigee height: 842 km
apogee height: 846 km
right ascension of ascending node: 52.9010°
argument of perigee: 271.5549°
revolutions per day: 14.14395769
mean anomaly at epoch: 147.8392°
orbit number at epoch: 53731

The dashed part of the orbit path shows where the satellite is in the earth's shadow,  

DLR